RH
6 6 6 6 6 5 5 5 5 5 8 14 19 26 30 31 30 29 28 26 24 23 20 17 16 15 13 12 12 12 11 10 10 9 9 8 8 8 7 5 4 4 7 9 10 13 13 14 11 10 31 69 93 98 99 99 98 95 89 81 77 72 62 53 48 48 54 61 64 64 59 53 49 46 43 40 37 34 32 33 32 27 22 20 21
9 8 7 7 6 6 5 5 5 4 5 8 14 20 25 29 31 30 28 27 25 22 19 17 14 12 11 10 9 10 9 9 9 8 8 8 7 8 8 7 6 4 4 7 9 11 13 11 11 11 22 56 89 97 94 97 101 100 92 85 81 75 66 57 49 45 45 46 52 60 64 63 56 50 47 42 39 40 38 36 32 26 21 20 20
11 10 9 8 7 6 5 5 5 4 4 6 9 16 22 26 28 28 28 27 26 23 20 17 14 10 8 7 7 7 7 7 7 7 7 7 6 7 7 7 7 6 5 5 6 10 12 11 12 11 12 33 60 71 81 96 101 99 97 92 87 80 71 62 53 47 46 44 44 50 62 70 66 60 54 48 44 43 40 37 33 27 24 20 17
13 12 10 9 7 6 6 5 4 4 4 5 6 10 16 22 27 27 26 27 27 25 22 17 14 11 7 6 5 5 5 5 5 5 6 6 5 5 6 6 6 7 6 5 5 7 11 11 10 11 13 20 33 52 79 100 101 99 100 97 93 88 80 73 65 54 49 48 45 47 58 70 73 69 64 58 52 46 41 39 35 32 28 22 18
13 13 11 9 8 6 6 5 4 5 5 5 6 7 10 16 24 27 26 26 27 26 23 19 15 12 8 6 5 4 4 5 4 4 4 4 5 4 4 5 5 6 7 7 6 5 8 12 10 11 14 18 37 70 93 100 100 101 101 100 100 95 88 84 77 61 52 50 48 48 56 67 76 77 73 66 56 47 42 40 39 36 29 23 21
14 14 12 10 8 7 6 5 5 5 5 6 6 7 9 13 20 25 26 26 27 26 24 20 15 13 10 5 4 4 3 3 3 4 4 3 4 3 3 4 4 5 6 7 8 5 5 9 11 13 13 17 47 89 103 99 101 101 98 100 102 98 96 94 85 69 59 57 55 55 59 67 76 78 77 74 68 60 52 45 40 36 30 26 24
15 14 13 11 10 9 8 7 7 7 7 7 7 8 11 15 19 24 25 25 27 26 24 20 16 14 11 6 4 3 3 3 3 3 3 3 3 3 3 4 3 4 5 6 8 7 5 7 10 13 15 15 38 80 99 97 98 100 100 101 101 100 100 98 91 78 70 67 64 63 61 62 66 70 76 82 83 80 73 60 48 41 37 35 38
18 16 15 13 12 11 10 9 10 10 11 12 13 13 15 19 22 25 26 26 27 26 24 21 18 15 12 7 4 3 3 3 2 2 2 2 3 3 3 3 3 3 3 5 7 7 6 7 8 12 17 17 26 54 77 80 82 90 97 100 101 100 99 99 96 87 80 76 71 67 65 65 69 76 82 87 89 90 89 77 62 54 53 56 64
22 20 17 13 12 12 12 12 12 15 19 21 23 22 22 25 26 26 27 26 26 27 24 20 18 16 13 8 5 4 2 3 2 2 4 4 3 4 3 3 3 3 3 3 5 8 7 6 8 11 16 20 22 33 49 61 70 80 91 98 101 100 98 99 99 94 88 80 72 72 75 75 78 86 91 94 96 96 94 84 74 71 73 75 74
21 19 16 13 12 11 13 14 15 20 26 29 31 30 29 29 29 28 28 27 26 26 24 21 18 17 15 10 6 4 2 3 3 3 8 12 9 7 5 5 4 2 4 3 2 6 8 6 8 10 15 21 24 27 32 39 54 75 93 101 100 99 99 100 100 97 89 80 77 80 82 79 85 95 99 98 99 98 93 88 85 83 81 76 68
18 19 19 15 14 14 14 17 22 28 33 33 32 30 28 28 27 28 28 26 26 24 22 21 19 18 17 12 8 5 3 3 3 5 15 22 21 17 14 13 10 4 3 4 3 4 6 7 8 9 15 20 22 26 24 27 52 84 99 101 100 100 100 100 100 96 86 82 85 84 81 83 91 99 99 97 99 98 93 91 92 90 85 77 71
20 23 24 21 20 21 22 25 31 36 36 32 25 21 20 20 20 21 22 24 24 23 21 20 18 18 16 13 9 5 3 3 3 9 21 29 31 31 29 26 21 12 6 3 3 3 4 8 8 7 14 18 20 24 20 29 69 100 100 98 101 100 99 98 98 94 85 82 84 82 80 82 86 91 95 97 98 94 90 92 95 94 90 83 75
21 24 25 25 23 24 28 33 37 39 35 26 18 15 13 12 12 13 15 19 20 20 20 18 17 16 14 12 9 4 3 3 4 12 26 32 34 37 39 38 32 24 15 6 3 4 3 6 8 7 12 17 21 23 17 32 77 103 98 99 102 98 100 100 97 94 91 88 86 83 78 73 75 87 96 96 94 94 96 97 97 97 97 90 77
21 22 23 23 23 26 31 37 40 39 31 20 14 13 11 10 9 9 10 13 14 15 16 15 14 14 11 10 7 3 3 3 5 18 30 32 35 39 43 45 41 36 27 12 4 4 3 5 7 8 11 15 20 22 18 35 78 99 96 100 102 98 98 98 94 95 96 96 93 85 73 66 71 82 86 86 89 96 101 99 98 101 102 96 87
24 24 22 22 25 29 35 41 41 35 25 17 14 13 11 8 7 6 7 9 9 10 11 10 10 9 7 6 4 3 4 3 9 27 36 34 36 40 44 47 45 42 36 23 9 4 3 4 6 8 12 14 19 22 17 30 70 94 97 100 103 100 98 96 95 96 98 98 92 80 69 71 82 89 86 85 92 98 99 98 100 102 97 93 94
29 28 26 28 33 37 42 43 37 27 19 16 15 13 10 8 6 5 6 6 6 6 6 5 5 4 3 4 3 4 4 5 19 38 43 38 39 41 44 48 45 43 42 32 15 4 3 5 4 8 13 12 18 22 17 34 78 100 97 97 99 98 99 99 98 100 101 96 87 74 64 69 88 100 95 93 98 100 99 99 97 92 87 91 98
29 32 37 41 44 47 46 39 28 21 17 18 24 30 30 24 14 7 5 5 5 5 3 3 4 4 5 5 6 6 4 10 31 48 46 40 42 44 46 48 47 45 44 39 23 7 3 4 4 8 12 12 18 20 17 43 90 104 91 89 96 98 100 100 99 101 99 92 84 75 63 67 88 100 98 98 102 102 100 98 91 85 87 97 99
34 46 52 54 53 50 41 29 21 19 20 31 50 64 65 56 38 19 9 7 8 9 9 9 10 11 12 12 12 10 8 15 35 49 46 41 43 45 45 48 50 47 44 44 32 11 2 4 4 7 11 12 16 19 20 45 85 98 91 93 98 99 101 101 99 100 98 92 85 76 71 80 96 101 99 100 98 94 93 90 86 87 96 100 92
53 65 64 59 53 42 29 22 22 26 35 56 78 87 87 82 64 41 28 25 28 30 27 23 23 24 26 27 25 20 16 20 32 42 44 42 41 41 41 43 46 45 44 47 38 17 4 3 4 6 10 12 15 20 26 45 73 91 96 99 101 100 99 100 100 100 98 96 92 88 90 97 101 99 96 90 82 80 83 85 89 97 98 92 84
76 77 66 55 42 29 22 25 36 50 64 80 92 93 92 88 75 59 54 54 55 54 44 34 30 30 29 32 33 30 26 25 28 34 36 36 36 37 37 37 40 42 43 46 42 23 5 1 5 6 9 12 15 20 27 41 66 89 97 98 100 100 98 99 101 100 100 99 98 99 100 98 94 90 86 80 75 78 86 93 99 101 93 85 83
85 73 58 44 30 24 29 41 56 73 84 90 93 93 91 86 74 66 67 66 62 61 54 45 42 41 39 36 34 34 34 33 33 34 34 35 36 37 35 33 37 41 42 45 45 28 6 1 5 5 8 13 15 19 24 28 45 74 92 97 100 100 100 101 100 99 101 101 100 100 98 96 94 89 82 80 81 86 94 101 101 93 85 84 87
81 62 45 32 26 31 45 61 74 85 92 94 93 91 92 85 72 67 66 60 57 60 60 59 58 58 55 50 44 44 45 46 47 47 47 49 48 43 37 34 36 39 39 44 47 30 7 1 4 4 9 12 12 20 22 14 27 62 89 99 101 100 99 101 100 99 101 101 99 100 100 99 96 91 86 87 91 96 101 99 90 83 85 89 87
73 50 34 30 35 45 61 77 87 92 95 95 91 91 93 85 72 68 65 58 57 60 59 60 63 65 67 63 58 60 64 63 60 56 57 59 54 44 37 33 34 38 39 44 48 31 6 0 4 5 8 10 13 19 15 13 42 81 98 99 100 98 96 98 100 99 99 99 99 101 102 100 97 95 94 96 99 102 97 86 81 85 92 91 83
60 38 33 41 50 59 72 86 93 93 93 94 92 93 94 87 75 71 67 60 57 56 51 48 48 55 70 77 74 73 77 74 66 56 53 53 49 41 36 33 35 39 40 47 48 28 5 1 4 4 7 12 14 14 15 35 73 99 100 100 101 97 94 97 100 99 99 99 100 101 100 99 98 99 100 102 101 95 85 80 86 95 95 87 79
44 33 46 60 65 71 81 89 94 95 94 94 93 92 95 91 81 74 71 66 63 61 59 54 45 45 66 90 94 89 89 85 72 57 48 46 45 42 37 36 39 40 42 48 44 22 4 2 3 5 9 10 10 18 41 74 98 101 96 100 102 97 97 98 98 99 100 100 99 99 98 98 100 101 101 100 94 87 85 90 98 98 91 84 82
33 38 62 76 79 85 90 93 96 98 98 96 92 91 96 94 83 78 80 79 76 77 79 80 75 71 80 97 102 98 98 91 73 58 49 44 43 41 37 38 42 41 43 47 36 14 2 2 4 6 7 10 26 53 78 94 99 99 99 100 99 99 101 101 99 100 100 99 99 99 99 100 101 101 100 97 93 92 96 100 101 96 89 86 86
31 48 70 81 87 93 95 96 97 99 100 98 95 96 100 96 87 87 93 93 92 91 88 88 93 95 96 101 100 100 102 92 74 64 57 47 42 42 40 40 41 40 43 43 26 7 2 4 5 5 9 30 66 92 98 98 99 101 101 100 99 101 101 100 101 102 99 98 99 99 100 100 100 101 101 100 99 99 100 101 100 94 88 86 88
34 54 69 81 91 94 95 97 98 100 100 96 95 100 102 96 90 91 93 93 93 91 85 87 96 100 100 100 98 100 101 90 75 67 58 49 49 48 42 41 43 43 42 31 12 3 4 3 5 11 25 57 91 102 98 100 103 101 100 100 100 102 101 100 100 100 98 98 99 99 100 100 101 101 102 101 101 100 100 101 101 94 86 84 88
38 55 66 80 91 91 92 95 97 100 101 95 94 101 100 91 87 91 92 89 90 91 91 94 100 101 99 100 99 101 102 92 77 66 57 53 55 51 46 49 49 41 30 15 5 6 5 1 12 32 50 71 93 100 98 100 100 99 100 102 101 100 100 99 99 99 98 99 100 100 100 101 101 101 101 102 102 102 101 102 99 92 86 86 89
42 56 65 79 88 86 85 90 94 99 101 98 97 101 99 89 85 95 102 97 93 96 99 100 100 99 99 101 100 100 100 90 75 66 63 58 52 50 55 59 48 28 14 7 5 7 6 11 34 62 78 87 95 98 98 99 100 100 100 100 99 99 98 98 100 100 100 100 100 100 100 101 101 102 102 102 101 100 99 97 95 93 93 92 88
44 57 65 77 85 83 79 82 89 96 100 100 99 100 100 92 83 89 100 100 96 98 101 100 99 99 100 101 101 102 102 92 75 65 61 56 54 59 62 53 31 11 5 10 19 26 34 47 64 78 90 98 99 97 97 100 101 100 99 100 100 99 99 101 101 100 100 100 101 100 100 102 103 102 100 96 93 91 91 91 94 97 97 90 81
42 56 65 73 80 81 76 73 80 91 97 100 100 99 101 99 87 82 90 98 100 100 100 100 100 100 100 99 100 99 93 82 70 63 60 60 64 67 57 34 10 3 17 43 65 75 81 88 89 88 93 99 99 98 100 101 100 100 100 100 100 100 101 101 99 99 101 101 100 100 101 102 100 95 90 86 85 85 88 92 96 95 87 78 73
36 51 62 69 74 77 74 68 70 81 91 99 102 98 99 103 97 86 87 97 102 100 99 101 100 99 101 102 99 95 88 82 79 75 72 74 71 56 35 13 2 17 54 87 101 100 98 100 99 98 99 100 98 98 99 99 99 100 100 100 100 100 100 99 99 101 101 99 99 101 101 100 96 91 88 89 90 92 94 96 92 83 74 72 76
28 42 56 65 69 71 71 66 63 69 81 94 101 100 98 101 100 90 86 96 104 100 98 100 99 99 102 100 94 89 82 78 81 80 71 63 54 36 16 5 13 47 86 103 101 99 100 101 100 100 100 100 100 100 100 100 100 100 100 100 101 99 99 100 101 100 100 100 102 102 100 97 94 92 92 92 92 91 90 86 80 75 74 78 83
22 32 45 57 63 65 65 63 58 59 68 82 95 101 100 99 102 96 87 91 100 102 100 99 96 91 85 75 70 74 72 61 59 64 60 46 34 24 13 10 30 71 99 102 98 99 101 99 99 100 99 99 100 100 101 101 100 99 100 100 99 99 100 101 100 101 102 102 99 97 95 94 94 93 91 90 91 93 90 83 79 79 82 85 88
21 23 33 45 54 58 57 56 55 53 56 68 85 99 101 98 101 102 93 88 93 98 99 102 96 79 65 59 58 66 76 73 58 46 43 38 24 15 21 40 65 89 101 100 99 100 99 98 101 100 98 99 101 100 100 100 99 100 101 100 99 100 101 101 101 102 99 96 94 95 97 98 99 99 98 96 98 99 95 89 87 89 91 93 96
26 20 24 31 43 51 50 49 50 49 49 56 71 91 102 100 98 102 100 93 89 83 86 100 99 74 62 77 83 73 73 82 71 48 46 54 44 27 40 74 96 98 97 99 100 100 100 100 100 100 99 100 100 99 99 100 100 100 99 99 100 101 100 100 100 99 97 97 98 99 99 100 100 99 100 99 98 96 94 93 95 97 98 99 101
33 21 19 21 30 41 44 43 43 43 45 48 57 76 95 101 99 100 101 99 94 80 69 81 92 75 63 84 103 93 80 84 87 76 74 87 89 73 66 79 91 93 96 100 100 99 101 100 99 100 100 99 99 100 100 100 100 100 99 100 100 100 100 100 100 100 100 99 97 95 98 100 98 94 92 91 89 89 92 96 99 101 102 101 100
44 27 21 17 20 29 37 39 39 38 41 44 48 61 82 96 100 101 99 99 102 93 78 74 80 77 74 83 97 99 91 84 86 89 84 85 97 98 86 82 90 97 99 100 100 100 101 100 99 100 100 99 100 101 100 100 100 99 99 100 100 100 100 100 99 101 100 96 93 96 100 99 93 89 88 88 86 88 94 99 101 101 99 95 92
61 42 29 20 17 20 26 33 37 37 38 41 43 49 65 83 96 101 100 99 100 100 98 94 80 71 79 93 98 100 99 90 88 93 90 85 89 88 79 84 99 103 98 99 101 100 100 100 100 100 100 100 100 100 99 100 99 98 99 101 100 100 100 99 99 101 100 97 98 101 100 95 92 92 94 95 94 95 97 99 99 96 90 85 83
79 65 47 31 21 18 18 23 30 35 37 39 41 43 51 66 84 95 99 101 100 97 100 105 92 75 82 99 102 99 100 99 96 97 97 98 97 87 75 83 99 101 98 100 101 98 99 101 100 100 100 100 99 99 99 99 99 100 101 101 100 100 100 99 100 101 100 100 102 101 96 95 97 96 93 91 89 87 87 87 87 86 83 82 83
86 82 69 48 32 24 19 17 19 26 32 36 38 41 43 51 67 83 92 98 102 100 98 101 100 94 95 101 101 99 100 101 101 101 100 100 102 97 90 93 101 101 99 100 99 98 100 101 99 100 101 99 99 99 99 100 100 100 100 100 100 100 100 100 100 100 99 100 101 98 96 99 99 94 87 85 84 82 81 81 82 83 85 87 90
85 85 80 66 49 36 29 22 17 16 22 28 33 37 40 43 50 65 79 89 97 101 100 99 100 100 100 99 99 101 101 99 99 101 100 98 99 100 99 99 100 99 99 100 100 100 101 100 100 101 100 99 100 101 100 100 101 100 100 100 100 100 100 100 99 99 100 100 101 100 99 98 93 87 85 87 88 87 86 87 89 92 95 96 98
85 82 83 80 69 54 41 33 26 19 16 19 25 29 34 39 42 49 61 75 87 96 100 100 99 99 100 101 100 100 100 100 100 100 100 99 99 100 100 100 100 99 100 100 100 100 100 100 101 101 100 100 100 100 99 100 100 100 100 101 100 100 101 100 99 100 100 100 101 100 96 91 88 89 92 94 95 94 95 96 98 100 101 101 100
92 86 86 86 85 76 60 45 37 30 21 16 18 22 25 30 36 41 47 56 68 81 92 98 100 99 99 100 100 99 99 100 100 99 100 101 100 100 100 100 101 100 100 100 100 100 100 100 100 100 100 100 100 100 100 101 100 100 100 100 100 100 100 99 99 100 100 100 100 98 94 93 95 97 97 97 98 100 100 100 101 102 101 100 100
97 94 91 88 89 89 80 63 49 41 32 23 17 18 19 21 26 32 38 43 51 62 74 86 95 100 100 100 100 100 100 99 99 100 100 100 100 101 101 100 100 100 100 100 100 100 100 100 100 100 100 100 100 100 101 100 100 100 100 100 100 100 100 100 101 101 100 101 101 99 97 98 100 100 98 98 100 101 101 100 100 101 100 99 97
99 98 97 94 91 91 90 80 65 53 45 36 26 20 18 18 19 23 28 33 39 46 54 65 77 89 96 99 100 99 99 99 100 100 100 100 100 100 100 100 101 101 100 100 101 100 100 100 100 100 100 100 100 100 100 100 100 100 100 100 100 100 99 100 100 99 99 100 99 98 98 99 100 101 100 100 100 100 99 100 101 100 98 96 94
101 98 97 97 95 93 91 88 81 69 59 50 41 31 23 19 17 17 20 24 29 34 41 48 56 67 79 89 96 100 101 101 100 100 100 100 101 100 100 100 100 100 100 100 100 100 100 100 100 100 100 100 100 100 100 101 101 100 99 99 98 97 97 98 97 96 97 98 98 99 100 100 101 101 101 100 99 100 101 101 101 98 95 93 92
101 99 96 95 96 95 92 91 91 87 80 70 59 48 36 27 21 17 16 18 20 24 29 36 42 49 56 66 76 86 93 98 100 101 101 100 100 100 100 100 100 100 99 99 99 99 99 100 100 100 100 100 100 100 100 100 99 99 99 98 98 98 98 98 97 97 98 99 99 100 101 100 100 100 100 99 100 101 101 100 98 95 92 90 90
101 101 100 98 97 97 95 93 92 93 93 90 83 72 60 47 35 25 20 17 17 19 21 24 30 36 42 47 54 62 70 78 86 92 97 100 101 101 101 100 100 100 99 98 98 99 99 99 100 100 100 100 100 100 99 99 99 99 99 100 100 100 99 98 98 99 100 100 100 100 100 100 100 100 100 100 101 101 101 99 95 92 89 88 87
98 99 100 101 101 101 100 97 94 92 92 95 96 92 85 76 63 47 33 23 18 18 19 19 20 23 29 35 40 44 48 54 60 66 73 80 86 91 95 98 99 100 101 101 100 100 100 100 100 100 100 101 101 100 101 101 101 101 101 101 101 101 100 100 100 100 100 101 101 100 100 100 100 99 100 101 102 101 99 95 91 89 88 87 86
Wind_Speed
40 40 40 40 41 41 42 43 43 43 43 43 45 47 49 50 51 51 52 54 55 54 54 55 56 55 56 56 56 57 57 57 57 57 56 56 56 56 58 61 65 69 72 72 70 68 66 64 61 58 57 56 56 59 59 56 56 57 58 59 59 57 55 54 53 51 50 50 50 49 47 45 44 43 41 41 41 42 43 43 42 40 39 37 36
41 40 40 40 41 42 42 43 43 43 44 44 46 47 49 50 51 52 53 54 55 55 55 56 56 57 57 57 58 58 57 58 58 58 57 57 57 57 57 57 60 64 69 71 71 69 67 66 63 60 59 57 57 58 59 59 58 55 54 56 57 57 57 57 56 53 52 52 52 50 48 46 45 43 42 42 43 43 43 43 41 40 39 39 37
41 41 41 41 42 42 42 43 44 44 45 46 47 49 50 51 52 52 52 54 55 55 56 56 56 57 57 58 59 59 59 59 59 59 59 58 59 59 58 57 57 59 63 67 70 71 69 67 65 63 61 59 59 59 58 61 62 57 54 54 55 55 56 57 56 54 53 53 53 51 49 48 46 45 45 44 44 43 43 42 41 41 40 39 37
41 41 42 42 43 43 43 43 44 46 47 48 49 50 52 53 53 53 53 54 55 56 57 57 57 56 56 57 58 59 60 60 60 61 60 60 60 60 60 59 58 58 59 62 66 70 71 70 67 65 63 60 59 58 58 60 61 58 55 54 55 54 54 54 53 52 52 53 53 51 49 48 48 48 47 46 44 44 44 43 42 42 41 39 37
42 42 43 43 43 43 43 43 45 46 47 48 50 51 53 53 54 54 55 56 56 57 57 57 57 56 55 56 57 58 60 61 61 61 61 61 61 61 62 62 61 59 58 58 61 66 71 71 69 67 64 62 59 57 58 59 57 55 55 54 54 54 54 53 52 50 50 51 51 50 49 48 48 48 47 46 46 45 45 46 45 43 41 39 37
42 42 43 44 44 44 44 44 46 47 48 48 49 51 53 54 54 54 55 57 58 58 58 57 57 56 55 55 55 55 57 59 61 62 63 63 62 62 63 63 63 62 60 59 58 61 68 71 70 68 66 63 59 55 57 59 56 54 55 55 54 54 54 53 51 50 49 49 49 49 47 46 46 47 47 47 47 47 48 48 46 43 41 38 36
41 42 42 43 44 44 45 46 47 48 49 49 49 50 52 53 54 55 56 57 58 59 58 58 57 56 55 54 53 53 53 55 58 60 62 64 64 64 64 64 64 64 63 62 59 59 63 69 71 70 67 65 61 56 55 57 57 56 56 57 57 55 53 52 50 48 48 48 48 47 47 47 47 46 47 47 47 48 49 46 43 41 40 39 38
41 41 42 43 43 44 45 46 47 48 48 49 50 50 51 52 53 55 56 57 58 59 58 58 57 56 55 53 52 51 50 51 53 55 57 61 64 66 66 66 66 66 65 65 63 60 60 66 71 71 68 66 62 58 56 57 58 57 57 59 59 56 54 51 48 47 47 47 47 47 46 46 45 44 45 45 44 44 44 42 41 41 41 40 39
40 41 42 43 43 44 45 46 46 47 47 48 49 50 51 52 53 55 56 57 58 58 58 58 57 56 55 54 53 51 50 49 50 51 52 55 60 64 66 67 68 68 67 67 66 63 61 64 69 72 70 66 63 60 58 57 57 58 58 59 58 55 54 52 48 47 46 46 47 45 43 43 43 44 45 44 42 42 43 43 42 42 42 40 39
41 42 44 45 44 44 45 45 45 45 46 47 48 49 51 53 54 56 56 57 58 58 58 58 57 56 55 54 53 52 51 49 50 50 50 51 54 58 62 65 67 68 69 69 68 67 64 63 66 71 71 67 63 61 59 57 57 59 60 59 56 54 54 52 49 46 44 45 46 42 39 40 43 44 44 43 43 43 43 42 41 41 40 38 37
42 43 44 45 44 44 44 44 44 44 46 47 48 50 51 53 55 56 57 57 58 59 59 58 58 57 56 55 55 54 52 51 51 51 49 48 51 53 55 58 62 66 69 69 69 69 67 64 64 69 71 68 63 62 60 59 59 59 61 60 57 55 54 51 48 45 43 44 45 41 38 41 44 43 41 42 43 41 39 39 41 40 39 38 39
41 42 43 43 42 42 43 43 44 45 47 49 50 50 52 53 55 56 57 58 58 58 59 59 59 58 57 56 56 56 54 52 52 53 50 48 49 51 51 52 55 60 65 68 69 70 69 67 64 67 71 69 64 61 61 61 59 59 61 60 57 56 55 52 48 46 45 46 45 42 40 43 45 42 40 42 42 39 38 40 41 40 40 41 40
41 42 43 43 41 41 42 44 45 47 49 50 50 51 52 53 54 56 57 57 57 58 58 59 59 59 58 57 57 57 55 53 53 54 52 50 50 50 49 49 49 53 58 64 69 70 71 70 66 65 69 69 65 62 62 60 58 59 61 61 59 58 56 53 51 48 46 46 45 42 42 43 43 41 41 41 37 34 35 36 34 34 36 38 38
41 43 44 44 42 43 44 45 47 49 50 50 51 52 52 53 54 55 55 55 56 56 57 58 58 58 59 58 58 57 56 54 55 55 54 51 51 50 49 47 46 48 52 59 66 70 71 70 68 65 67 68 66 64 62 59 58 60 62 62 62 60 55 52 52 50 47 47 46 43 40 40 40 40 42 40 34 32 33 33 31 33 36 38 39
41 43 44 44 44 44 46 47 49 50 50 50 51 51 52 52 52 53 52 53 53 54 55 56 57 57 58 58 58 57 56 55 56 57 55 52 51 49 48 47 45 46 49 54 62 69 71 71 70 67 66 68 67 65 62 59 60 62 62 62 62 59 54 51 51 51 50 49 46 41 38 37 38 40 42 40 38 37 36 34 35 38 41 43 43
40 42 44 44 44 45 47 48 49 49 48 49 49 48 48 48 49 49 49 49 50 51 52 53 54 54 53 53 53 53 54 55 57 57 55 52 50 49 48 47 45 45 47 51 57 66 71 72 71 69 68 68 68 66 63 60 60 61 60 59 59 57 52 51 52 51 50 47 43 40 39 39 39 41 41 40 40 41 40 40 42 44 47 48 45
41 42 43 44 44 45 47 48 47 47 46 45 44 43 43 43 44 45 46 45 45 45 46 47 47 46 45 44 44 46 50 54 56 56 53 50 49 49 48 47 45 45 47 49 54 62 70 72 71 70 69 69 69 67 64 62 62 62 61 59 57 54 52 51 51 50 48 46 43 42 42 42 41 42 42 40 39 40 42 44 47 49 52 51 45
40 42 42 43 44 45 46 46 45 43 42 40 39 38 38 39 40 41 40 39 37 38 40 41 40 40 39 38 38 40 46 52 55 54 51 50 50 50 49 48 46 45 47 48 51 59 68 73 72 71 71 70 69 67 65 64 65 64 61 58 55 53 51 50 50 50 50 48 45 43 42 42 43 44 44 43 42 43 46 48 50 52 51 48 43
39 40 41 42 43 44 44 42 40 38 36 35 35 35 36 38 39 37 35 34 34 37 39 39 38 39 39 39 39 39 42 49 54 53 51 51 52 52 50 49 47 46 46 48 50 56 66 72 72 72 72 71 69 67 65 64 64 63 60 56 52 51 51 51 52 52 51 47 44 42 42 42 43 45 45 45 46 47 49 51 51 48 45 42 39
37 39 40 41 42 41 39 37 35 34 33 32 33 34 36 37 37 34 34 34 35 38 39 39 39 40 41 41 42 42 43 47 51 52 51 51 52 52 51 50 48 46 47 48 49 53 63 71 72 72 73 71 68 66 65 64 62 59 59 56 54 53 54 53 53 50 48 46 44 44 45 45 45 44 45 46 48 49 50 50 47 42 39 37 36
36 38 39 39 38 36 35 33 32 32 31 30 31 33 34 35 35 33 33 34 36 38 40 41 40 41 42 44 45 47 47 49 51 52 52 52 53 54 52 50 48 47 47 49 50 52 60 70 72 72 72 71 67 65 64 64 62 58 57 57 56 57 57 54 51 48 46 46 46 46 47 46 45 45 46 47 47 46 46 45 41 38 37 36 35
35 37 37 36 34 32 32 32 31 31 30 29 30 32 33 34 34 32 32 33 32 33 35 37 38 39 41 43 45 47 48 49 51 51 52 53 54 53 52 49 47 46 47 50 50 51 59 69 72 72 72 69 66 65 64 63 61 57 56 57 57 56 55 54 52 50 48 48 47 47 48 47 47 47 47 45 44 43 42 40 38 38 37 35 33
35 35 34 32 29 29 31 32 31 30 29 29 30 30 31 33 33 30 29 28 26 27 29 31 33 35 38 41 43 43 43 45 46 46 48 50 51 50 49 47 45 46 48 50 50 51 59 68 72 72 71 68 65 64 62 61 59 55 53 55 55 53 52 53 52 51 50 49 49 47 47 47 46 45 44 43 42 40 38 37 37 38 36 33 32
33 32 30 28 27 29 31 32 31 29 28 30 30 30 31 32 29 25 25 25 24 24 26 29 31 34 36 39 41 40 39 40 43 45 45 45 46 45 46 45 46 47 49 50 49 51 60 68 71 71 69 65 64 63 61 61 58 53 51 53 53 52 52 52 51 50 49 46 44 44 44 44 43 42 41 40 39 37 36 37 38 36 33 32 32
30 28 26 26 26 28 30 31 29 27 28 30 30 29 30 28 25 22 22 22 21 20 20 23 27 32 35 38 41 41 39 39 42 44 43 42 42 43 44 45 46 48 49 48 49 53 61 67 69 68 65 63 63 63 62 62 60 54 52 54 53 52 53 51 48 46 45 42 40 42 44 43 41 40 38 37 35 35 35 37 36 34 32 32 33
27 24 23 23 25 27 29 29 26 25 28 30 29 29 27 23 20 18 17 16 15 15 16 17 19 25 29 32 36 40 41 41 43 44 43 41 41 42 45 47 47 48 48 47 49 56 63 66 66 65 64 63 63 60 59 60 60 56 54 53 54 54 53 49 45 44 45 44 43 43 42 40 38 36 35 33 33 34 35 35 33 32 32 33 34
24 22 21 22 24 26 27 26 25 25 27 28 28 27 23 18 16 14 11 11 12 13 13 13 14 19 25 26 29 35 40 41 42 42 41 40 40 42 45 46 46 46 46 46 51 58 63 65 65 64 64 64 60 54 52 55 60 61 55 50 53 54 51 49 49 49 48 46 45 42 40 36 34 32 30 31 32 33 33 33 33 33 33 34 36
22 20 19 21 23 24 24 25 24 24 27 27 26 24 18 13 11 9 7 9 11 11 11 10 9 13 18 20 23 31 38 40 40 40 39 39 40 42 44 45 44 44 45 47 53 59 61 63 64 64 64 62 56 50 51 53 59 63 57 50 50 52 51 50 52 51 47 42 39 38 36 33 31 29 29 30 31 32 33 34 34 34 35 36 38
21 19 18 20 22 22 22 24 24 24 26 27 25 21 13 8 6 6 7 9 10 9 9 7 5 6 11 15 20 29 37 38 38 38 38 39 41 42 43 43 43 43 45 48 53 58 60 63 64 63 63 61 54 51 50 49 52 58 58 52 51 52 52 53 53 49 44 38 36 35 33 31 29 28 29 30 31 32 34 35 35 36 36 38 39
20 18 17 19 20 20 21 23 24 24 25 25 24 19 10 5 4 5 7 10 10 8 6 4 4 4 6 12 19 28 34 35 36 38 38 39 41 41 41 42 41 43 47 51 55 58 60 62 63 61 60 58 54 51 51 50 50 54 56 54 54 55 55 55 52 46 41 38 36 34 31 28 27 27 28 30 32 33 34 36 36 37 38 38 39
18 17 17 18 19 19 20 22 24 24 23 23 22 18 10 2 2 4 6 6 5 4 4 6 6 5 6 11 18 25 30 32 34 36 36 37 39 40 40 40 42 46 52 54 56 59 60 60 60 59 57 57 55 53 54 55 55 56 57 57 57 57 55 51 47 42 40 38 36 32 28 26 26 28 31 33 34 34 35 36 36 37 37 37 37
18 17 17 18 18 18 19 21 22 23 23 22 21 18 11 2 1 5 5 4 3 3 5 8 8 6 8 14 18 22 25 27 29 31 33 35 37 38 38 41 45 53 57 55 52 54 56 55 55 56 58 59 55 52 53 55 55 55 57 57 56 54 49 46 43 41 40 37 32 28 26 27 29 32 34 35 35 35 35 35 34 35 35 35 36
17 17 17 17 18 18 19 20 21 21 22 21 19 18 12 3 0 4 4 2 5 6 10 13 10 8 11 15 17 20 22 24 26 29 32 34 35 36 38 43 51 59 60 53 48 50 51 49 49 52 55 56 51 48 51 53 51 51 53 53 50 48 46 43 42 40 37 33 29 27 28 29 31 32 32 33 33 33 33 33 33 33 33 34 34
16 17 17 17 18 18 18 19 20 20 21 21 18 17 14 6 1 2 3 2 8 12 14 13 10 11 15 16 18 21 23 24 26 28 30 32 34 36 39 46 55 59 58 52 49 48 48 47 47 49 51 52 51 49 51 51 49 48 48 47 45 44 42 39 37 34 31 29 28 27 27 27 27 27 29 29 30 30 31 32 32 32 32 32 33
16 17 17 17 17 18 18 19 19 18 19 20 19 17 15 9 5 3 3 3 9 14 12 8 10 15 19 20 21 22 23 23 24 26 28 31 34 36 41 48 53 54 52 48 44 41 41 45 50 52 51 50 50 49 48 47 45 45 45 45 42 40 36 33 31 28 27 27 26 24 23 22 23 26 28 28 28 29 30 30 30 31 31 31 32
16 16 17 16 16 17 18 18 18 17 17 18 19 17 15 12 8 5 3 2 7 11 9 9 13 18 20 21 21 20 22 24 24 26 30 32 32 36 41 44 46 45 41 37 34 32 35 44 53 55 51 46 45 46 46 44 43 45 45 43 40 36 33 29 27 26 26 25 22 19 19 21 24 27 30 31 31 31 31 30 30 30 30 31 32
17 17 16 16 16 17 17 17 18 17 16 16 17 16 15 13 11 8 5 3 6 7 6 10 17 21 23 24 21 18 21 25 26 28 31 30 30 35 40 40 40 39 35 30 27 29 35 44 52 52 47 42 42 45 45 44 44 44 43 40 37 33 30 27 25 26 25 23 20 20 21 24 28 31 32 33 32 31 30 30 30 30 31 31 33
17 17 16 16 15 16 16 16 17 17 15 14 15 15 14 14 12 10 7 6 5 7 7 10 15 19 24 25 18 13 18 26 29 31 33 33 32 35 39 38 37 38 34 29 28 31 37 45 50 48 42 40 42 43 43 43 44 43 40 38 34 29 26 25 26 25 24 24 24 23 24 26 29 31 31 31 31 30 30 30 31 31 32 33 34
16 16 16 15 14 15 15 15 15 16 16 14 13 12 12 12 12 11 9 8 7 7 9 9 11 15 21 22 16 10 14 24 29 32 36 37 36 36 39 40 37 36 33 31 31 32 36 42 47 45 40 39 40 40 39 39 40 40 38 35 32 28 26 27 27 25 25 27 26 23 24 26 28 28 29 30 30 31 31 32 32 33 33 34 35
14 15 15 15 14 13 14 14 14 14 15 14 12 11 10 10 10 11 10 8 8 8 9 10 11 14 17 17 15 12 15 21 28 32 36 37 35 35 40 42 38 35 34 33 33 34 36 38 40 40 39 37 37 38 37 37 38 39 38 37 34 31 29 28 27 25 25 26 24 23 25 26 26 26 27 28 29 30 32 33 33 34 35 36 36
14 14 14 14 14 13 12 13 13 13 13 14 12 10 9 8 7 8 8 8 8 8 9 11 12 14 14 12 13 16 20 24 28 31 34 35 35 36 39 40 37 35 35 34 33 35 36 36 37 38 37 34 34 38 41 41 40 40 40 38 35 32 30 28 26 24 23 23 24 26 27 26 26 27 28 28 29 30 31 32 34 35 36 37 38
15 14 14 13 13 13 12 11 11 11 12 13 12 10 9 8 6 4 4 6 7 7 7 9 12 14 13 12 14 19 22 24 26 28 30 31 33 36 38 37 36 35 35 33 33 34 34 35 37 38 34 30 30 34 38 38 37 37 35 33 31 30 28 27 26 26 27 27 28 30 30 28 29 30 29 29 30 31 32 33 34 35 36 38 40
16 15 14 12 11 12 12 12 10 9 10 11 11 10 9 8 6 4 2 2 4 6 7 8 10 12 12 12 15 18 19 20 22 24 27 28 29 32 34 35 36 38 38 36 34 34 34 35 38 38 34 30 28 29 30 30 30 30 30 29 29 28 28 28 29 30 30 31 33 34 32 31 31 31 32 33 34 35 34 34 35 37 39 41 43
17 16 15 13 10 10 11 12 11 10 8 8 10 10 9 8 7 6 4 2 1 3 5 7 9 10 11 12 14 16 18 18 19 21 24 27 29 31 33 33 34 36 37 37 36 36 36 36 37 37 35 32 30 29 28 28 28 29 29 29 28 28 27 27 27 28 30 33 36 35 33 32 33 34 35 37 37 37 36 37 38 40 42 43 44
18 16 14 13 11 10 10 10 10 10 9 7 7 9 9 8 7 6 6 4 4 3 3 5 7 9 11 12 13 15 16 18 19 20 22 25 28 32 36 37 36 34 32 32 33 33 33 33 34 35 35 35 35 34 32 31 30 29 28 28 28 28 28 28 28 29 31 34 35 34 34 35 36 38 39 40 39 38 38 39 41 42 43 43 43
16 14 13 12 11 10 8 7 8 9 9 8 7 6 8 8 8 7 6 6 5 5 5 5 5 7 9 11 13 14 15 17 18 20 21 22 24 27 32 36 37 36 34 32 31 30 30 30 30 32 33 33 34 33 33 31 30 29 28 27 27 28 29 30 31 33 34 35 36 36 38 39 40 40 41 40 39 39 40 41 42 42 42 42 41
13 13 12 12 12 11 8 6 6 6 7 8 7 6 6 6 7 8 7 7 6 6 6 6 6 7 7 8 10 12 13 15 16 18 20 21 22 23 25 27 29 31 31 31 31 31 30 29 29 30 30 30 31 31 31 31 31 31 30 30 31 31 31 32 33 34 36 37 38 39 41 41 41 40 40 39 40 41 41 41 41 40 40 39 39
12 13 12 11 11 11 9 7 6 5 5 6 6 6 5 5 6 7 8 8 7 7 7 7 7 7 8 8 8 9 11 13 14 16 17 19 20 22 23 24 25 26 27 28 29 30 31 31 31 32 32 33 33 33 33 33 33 33 33 33 34 34 34 34 34 35 36 37 38 39 40 40 40 39 39 40 40 40 39 39 38 38 38 38 37
11 11 11 10 10 9 9 8 6 6 5 5 4 4 4 4 4 5 6 8 8 8 8 8 8 8 9 9 10 10 11 11 13 14 16 17 18 19 20 21 23 24 26 27 28 28 29 30 30 31 32 32 32 32 32 32 32 32 31 32 32 32 33 33 34 35 35 36 37 38 38 38 39 39 39 39 38 37 37 37 37 37 36 36 36
9 10 10 10 9 9 8 8 7 6 5 5 5 4 3 3 3 3 4 5 7 8 9 9 10 10 10 10 11 12 12 13 13 14 15 15 16 17 18 19 21 22 23 24 25 26 26 27 27 27 28 28 28 29 29 29 29 30 30 31 31 32 33 33 34 35 35 36 37 37 37 38 38 37 36 36 35 35 35 35 35 35 35 35 34
10 10 10 9 9 8 8 8 7 7 5 4 4 4 4 3 3 2 2 3 5 6 7 9 10 11 12 12 12 12 13 13 14 15 15 16 16 17 17 18 19 20 20 21 22 23 24 24 25 26 26 27 27 28 29 29 30 31 31 32 33 33 34 34 35 35 36 36 36 36 35 35 34 34 33 34 34 34 34 34 34 34 34 33 33
Wind_Direction
274 274 274 274 274 273 272 271 268 265 262 260 259 259 258 257 256 254 254 255 256 256 256 255 255 254 253 252 251 249 247 247 246 243 242 241 241 240 239 237 236 235 234 233 233 233 233 233 233 233 232 232 234 238 240 240 239 237 237 238 238 239 240 243 245 247 249 251 253 254 256 258 259 260 262 263 264 265 267 269 272 274 275 276 278
274 274 275 275 275 275 274 273 272 269 265 262 259 259 259 258 257 255 254 254 255 256 256 255 255 254 254 253 252 250 248 246 246 244 242 240 240 240 239 238 237 235 234 233 232 232 233 232 232 232 231 230 233 237 241 241 238 237 238 239 238 239 239 242 244 246 249 251 253 254 255 256 258 259 260 261 263 265 268 270 273 274 276 277 279
274 275 275 275 275 275 275 274 274 272 268 265 261 260 259 260 259 258 255 255 255 255 256 256 255 253 253 253 252 251 249 247 245 244 243 240 238 238 238 238 237 236 234 233 232 231 232 232 231 232 231 230 232 236 240 242 239 237 238 239 239 240 240 242 244 245 248 250 252 253 254 255 256 257 259 260 263 266 268 270 272 274 275 277 278
275 276 276 276 275 275 275 274 274 273 270 267 264 261 260 260 260 260 258 257 256 256 256 255 254 253 252 252 251 251 250 248 246 245 243 241 238 237 237 237 237 236 235 233 232 230 231 231 231 231 231 231 231 234 237 239 237 235 237 239 240 240 241 242 243 244 246 248 250 252 253 254 255 257 259 261 263 266 268 269 271 272 274 275 277
276 276 276 276 275 275 275 275 275 274 272 270 267 264 262 261 261 260 259 258 257 256 256 255 254 253 252 251 250 250 249 248 247 245 244 242 240 237 236 235 235 235 234 233 232 230 229 230 230 230 230 230 231 232 232 233 234 235 237 239 239 240 241 242 243 244 246 248 249 251 252 254 256 258 259 261 263 264 266 267 268 270 272 274 275
278 277 276 276 276 276 276 276 276 275 275 273 270 267 264 262 262 261 259 258 257 256 256 255 253 252 252 251 250 249 249 248 247 245 244 243 241 238 236 235 234 233 232 232 231 229 228 229 229 229 229 228 228 230 229 228 232 235 237 238 239 240 241 243 243 243 245 247 248 250 251 253 255 258 260 262 263 263 264 264 266 268 270 272 273
280 278 277 276 276 277 277 277 277 277 277 276 274 270 267 265 263 262 260 258 257 256 255 253 252 251 251 251 251 250 249 248 247 245 243 242 242 240 237 235 234 232 231 230 230 229 227 227 228 228 228 226 226 227 227 227 231 235 236 238 240 241 242 242 241 241 244 246 248 249 251 254 256 259 261 263 264 264 264 263 264 265 268 270 272
281 279 278 277 277 277 278 278 278 279 278 277 275 273 270 268 265 263 261 259 257 255 254 252 251 251 251 250 251 252 251 251 249 246 243 242 241 240 239 236 234 232 231 229 228 228 227 226 226 227 227 226 226 225 225 227 231 234 236 238 240 241 241 241 240 240 243 245 248 250 252 254 255 257 260 261 262 262 260 260 262 264 267 270 272
281 280 279 278 278 279 279 279 279 279 278 276 275 273 271 269 267 265 263 260 257 255 253 251 250 250 251 251 252 253 253 253 252 248 244 242 240 240 239 237 235 232 230 228 227 226 226 225 225 226 226 225 225 224 223 226 229 232 235 237 238 239 240 240 239 239 242 245 248 250 251 253 255 256 256 255 253 255 258 261 264 266 268 268 269
281 280 280 279 279 279 280 280 280 278 277 276 274 272 270 268 266 265 263 260 257 255 252 251 250 249 250 252 253 254 254 254 254 249 244 241 240 239 239 238 235 233 230 228 226 225 225 225 224 224 225 225 224 224 222 224 227 230 231 232 235 237 238 239 239 239 241 245 247 247 250 255 257 254 252 252 253 257 261 265 267 266 265 265 266
281 280 280 280 280 280 280 281 281 280 279 278 276 273 270 268 266 264 262 260 257 254 252 251 250 249 250 252 253 254 254 254 252 248 242 240 239 238 238 237 236 234 231 228 226 224 224 224 223 223 223 224 224 223 222 223 225 228 228 228 232 235 236 237 237 236 237 241 244 246 247 249 251 251 251 254 256 259 265 268 267 265 265 266 267
280 280 280 280 281 282 282 282 283 283 282 281 279 276 273 270 267 264 261 259 257 255 252 251 251 250 250 251 253 254 254 253 250 245 239 237 238 238 237 236 236 234 231 228 225 224 223 223 223 222 221 222 222 222 222 222 224 226 225 226 231 235 236 237 237 234 234 237 242 245 244 244 247 250 253 254 257 263 268 269 268 267 267 266 268
279 279 279 281 283 284 284 284 284 285 284 282 280 279 277 274 270 266 262 259 257 255 253 252 252 252 252 252 253 254 254 251 247 242 237 235 236 237 237 236 235 234 232 228 225 223 222 221 222 221 220 220 221 221 221 222 223 224 223 224 229 233 235 236 237 235 234 237 240 240 241 244 247 249 252 254 258 262 264 265 267 267 266 267 270
280 279 280 281 284 285 285 285 286 285 285 283 283 282 281 278 274 269 264 260 258 256 255 254 254 254 254 254 254 254 253 249 243 238 235 234 235 237 238 237 235 233 232 228 224 222 221 221 220 220 218 218 219 219 219 219 221 223 224 225 228 231 233 235 237 237 234 234 238 239 241 246 249 249 252 253 251 247 250 256 260 259 261 268 274
283 281 281 282 284 285 286 286 287 286 286 286 287 287 285 282 277 272 267 262 260 258 257 256 256 256 256 255 255 253 249 244 238 234 233 233 234 236 237 238 235 233 232 229 224 221 220 219 219 218 218 217 218 218 218 217 219 223 224 224 225 228 230 234 238 238 235 234 237 238 240 242 241 242 245 248 246 244 244 247 250 253 260 268 273
285 283 282 283 284 285 287 288 288 288 289 290 290 288 285 282 278 274 269 264 262 260 258 258 257 257 257 256 255 251 244 237 232 231 231 232 234 235 237 238 236 233 232 230 224 220 218 217 217 217 217 217 216 216 216 215 217 220 222 221 222 225 229 233 236 236 235 235 235 235 237 235 231 232 237 241 244 245 244 245 249 256 263 267 270
284 283 283 284 285 287 289 290 290 291 292 291 288 285 283 281 278 274 270 266 264 263 261 260 259 259 258 256 253 247 239 233 229 230 231 232 234 236 238 239 237 232 231 231 226 220 216 215 215 215 215 216 215 215 214 212 213 216 218 219 221 223 228 233 234 234 233 233 231 232 235 233 228 229 233 236 240 244 246 250 256 260 263 266 269
282 283 284 286 288 290 292 292 294 294 291 287 283 282 282 281 278 276 274 271 269 266 263 261 260 258 257 255 251 245 236 230 228 229 231 232 235 237 238 240 238 234 230 230 227 222 216 213 213 213 214 215 214 213 213 211 211 213 215 217 220 223 228 231 232 232 232 232 231 231 232 230 227 228 232 237 243 249 253 257 261 263 264 265 268
283 284 286 289 292 294 295 296 295 292 287 282 281 282 280 279 278 277 276 273 269 265 263 260 258 256 254 252 249 244 236 230 228 229 231 234 236 238 238 238 238 235 231 229 228 223 216 212 211 212 213 214 213 212 211 211 212 213 214 215 219 224 226 227 228 229 230 229 227 227 228 227 228 230 235 242 248 253 258 261 262 262 263 264 268
285 287 290 293 295 296 297 295 293 288 284 282 282 282 280 278 278 276 274 270 266 264 263 261 257 254 251 248 246 244 239 234 232 232 233 235 237 238 238 237 237 235 230 228 227 223 216 211 209 210 212 213 212 210 210 211 212 214 214 215 220 224 223 221 222 224 225 223 221 222 225 227 229 233 239 246 252 256 259 259 259 260 263 266 270
289 292 295 297 297 297 295 292 289 286 284 285 285 286 285 282 279 276 272 268 265 263 262 261 257 253 249 245 243 241 239 237 236 237 237 238 239 238 237 236 233 229 226 224 225 222 215 209 208 209 211 212 211 210 210 211 212 214 216 217 221 223 220 216 216 218 219 220 221 222 225 228 231 237 243 249 254 256 256 255 257 262 265 268 270
293 297 298 298 297 295 291 290 289 286 286 290 291 290 290 287 283 280 275 270 265 262 260 258 254 251 247 243 240 238 237 236 236 236 236 235 235 234 233 231 226 221 220 220 221 220 213 208 207 208 210 211 210 209 209 211 212 214 218 220 221 219 215 213 213 214 216 219 221 224 229 233 236 241 246 249 251 253 254 256 260 263 265 267 268
298 299 298 297 295 292 290 291 290 288 291 297 297 296 297 293 289 286 282 277 273 269 264 258 252 247 243 240 238 235 234 233 230 228 229 229 227 225 225 222 217 213 215 217 219 217 211 206 206 208 209 209 209 208 210 211 211 214 219 220 217 212 211 212 213 213 217 221 225 228 231 234 237 241 245 247 249 252 255 258 261 262 263 264 266
300 299 297 295 293 291 292 293 291 291 299 305 304 306 306 300 297 297 294 290 287 280 271 263 255 246 239 236 233 230 229 227 222 220 221 221 218 217 216 213 209 208 211 214 217 214 207 205 205 206 207 207 207 208 209 210 212 215 216 213 208 205 207 210 212 216 222 226 227 227 229 232 237 241 244 247 250 252 255 257 259 260 261 262 264
299 297 295 294 294 294 294 293 291 296 307 311 311 313 312 306 303 304 301 299 297 291 282 270 258 246 237 231 228 226 225 221 215 213 214 214 213 211 209 206 205 206 209 214 215 210 204 203 203 204 205 205 206 207 209 212 215 214 208 203 201 201 203 207 213 221 227 226 223 225 230 235 240 243 245 246 248 250 253 256 257 258 260 262 264
298 295 294 296 298 297 295 293 293 303 315 319 319 319 317 310 307 307 305 303 303 302 299 287 263 244 233 226 224 222 218 213 210 208 208 209 210 209 205 203 203 205 209 213 213 207 202 200 200 201 202 203 205 208 211 211 209 202 197 197 199 200 201 205 211 218 223 224 225 229 235 239 241 242 243 244 247 250 254 256 257 258 260 262 264
296 295 296 299 300 298 295 295 299 311 322 326 325 323 318 309 307 309 305 302 305 305 303 295 266 238 225 220 217 212 206 204 205 204 204 207 209 207 203 202 203 205 209 211 209 203 198 197 197 198 199 202 205 205 203 200 195 190 188 193 197 200 201 203 207 212 216 221 227 232 236 238 238 240 243 246 250 254 256 256 256 258 260 263 265
296 295 297 300 300 298 296 298 303 316 328 332 330 326 316 301 301 310 308 308 310 307 304 302 275 234 217 213 209 201 197 198 198 199 202 204 205 204 203 202 203 205 207 208 204 198 194 194 194 195 198 202 201 193 188 189 191 191 192 194 197 200 202 203 207 211 214 220 227 231 234 237 240 244 248 251 254 256 256 255 257 259 261 264 265
295 297 298 300 301 299 299 301 307 320 333 337 335 330 316 288 285 303 307 311 308 300 301 303 272 216 200 199 196 190 190 193 195 197 200 201 201 201 200 199 201 203 203 201 197 193 191 191 192 194 197 198 194 187 185 188 193 195 196 197 200 204 206 207 210 213 218 225 230 232 236 241 244 247 250 252 255 256 255 256 258 260 263 264 266
295 298 299 301 304 305 306 306 310 321 335 341 339 336 325 285 266 281 293 302 300 290 283 262 232 220 199 192 188 185 186 192 196 197 198 199 199 198 195 195 198 199 196 192 189 187 188 190 192 195 195 192 191 190 189 190 192 194 196 198 201 205 209 211 214 218 224 229 231 234 239 243 243 245 249 251 253 255 256 258 259 262 264 266 268
295 299 300 301 306 310 311 313 314 320 334 344 345 342 336 301 279 303 295 296 304 288 238 196 191 206 200 186 184 185 187 191 194 196 196 196 194 192 191 194 195 191 186 183 182 184 187 191 196 198 195 191 191 192 190 190 191 193 196 199 203 207 210 214 217 222 226 229 232 236 239 238 240 244 247 250 254 256 258 259 261 263 265 268 271
296 300 302 302 306 310 314 318 319 321 333 346 352 350 346 327 315 334 310 264 259 254 191 161 153 168 182 177 177 183 187 187 189 190 190 189 188 187 190 193 190 183 178 176 181 187 191 193 196 196 193 191 191 190 189 191 193 195 199 204 207 210 214 217 220 223 227 230 232 233 233 235 241 246 250 254 258 260 261 262 264 265 268 271 273
296 299 302 303 307 310 314 320 323 324 331 344 356 360 359 359 255 341 338 229 212 182 144 134 132 146 162 167 170 174 176 177 178 180 180 181 183 186 189 190 184 178 175 177 183 189 192 193 193 191 188 188 189 190 191 193 195 198 203 206 209 213 215 217 219 222 225 226 227 229 233 240 246 251 256 260 262 263 264 265 266 267 269 272 274
297 297 300 303 306 309 313 319 325 327 329 339 354 6 11 18 55 2 22 147 182 169 140 123 126 143 150 154 158 160 161 163 166 171 175 179 182 185 188 187 183 179 180 183 185 188 192 196 194 190 186 185 187 189 192 195 197 200 202 203 206 209 212 214 217 219 221 223 227 232 239 247 254 258 261 262 263 264 265 266 268 270 271 274 277
300 294 295 299 304 307 310 316 323 329 330 334 347 5 16 27 47 52 54 132 177 182 171 144 136 142 144 145 147 149 152 157 162 170 176 180 182 184 186 186 184 184 185 187 189 193 199 200 196 192 189 187 187 189 191 194 197 199 200 201 204 207 209 211 213 216 221 226 231 238 247 257 263 265 265 266 268 269 268 268 270 273 275 278 281
309 298 293 295 299 304 307 311 318 327 332 333 340 357 15 28 43 63 84 146 180 192 191 167 156 154 147 141 143 150 159 163 166 171 174 176 178 181 183 184 185 188 191 196 203 210 209 201 194 191 190 189 189 190 193 195 197 198 200 202 204 206 208 210 214 221 225 227 232 244 253 257 259 261 264 268 272 272 270 270 272 276 279 281 283
317 307 298 294 294 299 305 307 311 320 330 333 336 349 7 22 38 58 76 119 174 189 171 143 152 160 155 147 146 154 167 170 166 165 167 169 172 177 181 184 187 191 196 202 206 205 200 192 188 188 189 191 191 193 196 198 199 202 204 204 202 204 208 214 218 221 221 224 235 246 250 252 255 260 264 268 270 270 269 270 273 277 280 281 282
320 316 307 299 293 295 301 306 309 314 323 331 335 343 358 14 30 48 64 85 136 175 175 152 153 165 170 169 163 155 165 173 172 169 172 174 175 179 185 189 192 195 198 196 189 185 184 184 184 185 189 192 192 193 196 198 199 202 203 202 203 210 217 218 218 218 222 232 241 246 251 257 262 265 267 268 268 268 268 271 274 277 279 281 283
318 319 316 309 300 295 296 302 308 312 318 327 334 339 348 3 21 37 54 75 102 139 168 172 170 174 181 188 192 183 175 180 181 180 182 184 184 185 187 188 190 194 193 188 183 180 179 180 183 186 189 190 190 191 195 198 200 202 204 206 212 220 222 219 218 222 232 240 244 247 253 261 266 270 271 270 269 269 271 272 275 278 281 283 285
317 318 320 319 314 304 296 297 304 310 316 322 328 335 341 350 7 27 43 63 86 115 141 155 168 184 192 197 199 189 174 174 179 183 187 191 192 191 189 190 192 191 186 182 182 181 179 179 182 185 188 191 194 196 199 202 205 207 211 216 222 224 223 223 224 228 236 243 247 250 254 260 266 271 273 273 272 273 274 275 277 279 282 283 285
316 316 318 321 323 319 307 299 298 302 310 317 322 329 335 337 350 14 34 53 74 103 130 139 155 181 197 195 177 163 154 155 164 173 183 191 195 195 193 193 194 191 188 187 186 185 185 187 189 188 188 190 195 199 202 205 208 211 215 220 223 225 226 228 229 232 239 246 252 255 258 261 266 269 271 274 276 278 278 278 279 280 281 283 285
314 314 313 315 323 326 321 312 303 297 299 307 314 321 326 325 327 348 20 47 69 95 124 139 151 168 180 174 163 160 156 153 156 162 170 180 189 192 192 193 192 190 190 190 187 186 190 193 192 190 189 190 193 197 201 205 209 213 217 221 225 228 232 234 236 241 245 246 250 257 261 263 264 267 270 275 278 280 280 280 281 282 283 285 287
307 310 312 313 319 326 327 324 319 307 296 295 300 308 317 318 312 311 324 30 75 95 114 132 145 158 165 164 163 165 165 161 159 161 165 169 175 180 184 186 187 188 192 194 194 195 199 198 193 191 192 192 192 196 202 208 213 218 223 227 230 232 233 234 238 242 244 244 247 255 261 263 264 268 273 277 280 282 283 283 283 284 285 286 287
299 307 316 318 319 325 329 327 325 322 311 295 290 294 302 308 306 301 290 268 188 125 122 127 136 149 160 166 167 170 173 172 171 171 173 174 175 179 181 181 181 184 190 196 199 201 203 202 201 202 205 206 206 209 215 219 223 226 229 230 229 230 233 234 237 241 245 248 250 254 260 265 269 273 277 280 282 283 283 283 283 284 285 285 286
293 302 313 318 321 327 331 328 326 325 322 312 296 289 289 292 297 298 291 276 250 214 174 148 140 143 152 160 165 170 175 178 180 181 181 182 183 185 187 188 189 190 190 192 195 197 200 203 206 210 215 217 219 223 226 228 230 232 233 232 232 235 238 239 241 244 248 251 254 257 263 269 274 277 279 280 281 281 282 282 282 283 284 285 286
291 295 301 308 315 321 323 321 321 322 321 319 314 300 288 284 285 287 288 283 270 251 229 204 179 161 153 155 160 165 169 174 180 185 189 190 192 192 193 195 199 203 203 203 204 205 208 210 212 215 218 220 223 225 228 231 233 236 240 243 245 246 247 247 248 250 251 254 257 261 266 271 274 277 278 278 278 278 279 279 280 282 284 285 286
285 286 289 295 303 308 310 308 305 307 312 317 319 315 302 288 279 276 277 278 275 267 255 239 222 204 185 170 164 164 168 172 177 184 190 195 199 203 205 207 209 211 212 212 213 213 215 218 221 223 225 228 231 234 237 239 241 244 248 251 253 255 256 256 257 258 260 262 263 265 267 270 273 275 275 275 275 275 276 278 280 282 283 284 286
279 280 281 284 289 296 301 300 292 287 294 306 314 316 314 302 284 274 271 269 267 265 262 254 244 233 223 210 193 180 176 177 180 185 190 194 198 202 207 212 216 218 219 219 219 219 221 224 227 230 233 237 239 242 245 247 250 253 255 256 256 257 259 260 261 263 264 265 265 265 266 268 269 270 271 271 272 274 276 278 280 282 283 284 286
284 285 285 282 280 284 290 294 291 287 286 289 296 305 313 312 297 280 271 266 263 261 258 254 248 242 237 232 225 215 203 195 191 191 192 195 198 201 204 208 212 217 220 223 225 226 228 229 231 234 237 239 241 244 247 249 252 253 254 255 256 256 258 258 260 261 261 261 262 262 263 264 266 267 269 270 273 275 277 279 280 282 283 285 287
288 290 292 289 283 278 279 282 286 288 289 288 288 291 298 308 305 288 272 265 261 259 257 254 250 244 239 234 232 230 225 220 215 210 206 203 203 203 204 207 209 213 216 220 223 226 229 232 234 236 238 240 242 243 245 247 249 250 251 252 252 253 254 255 256 257 257 258 259 260 261 263 265 267 269 272 274 276 278 279 281 283 285 287 290
287 289 292 293 289 282 275 273 275 279 283 288 293 294 296 301 302 292 273 258 254 253 253 253 251 249 244 238 233 231 230 229 228 227 225 222 220 217 216 215 215 215 217 219 222 225 228 231 233 235 237 239 241 242 244 245 246 247 248 248 249 250 251 252 253 254 255 257 259 260 262 264 266 268 271 273 275 277 279 281 283 285 287 290 292